Powrót do katalogu

INDOSTAR 1

AktywnyŁącznośćGEO
NORAD 25050·PAYLOAD·🇮🇩 Indonesia

Wystrzelony Nov 11, 1997 z Guiana Space Centre

Loading…

TLE

ŚwieżeSource: Space-Track

Epoka: Sep 14, 2026, 10:39 UTC

1 25050U 97071B   26257.44434458  .00000008  00000-0  00000-0 0  9992
2 25050  13.0547  19.3522 0002398 263.4129 290.2104  1.00355395105695

Śledź INDOSTAR 1 w czasie rzeczywistym z AllMySat

Download on the App Store